DW9945 Weather Reports


time (UTC)temp
F
wind
direction
speed
knots
gust
knots
rain 1hr
in
rain 24hr
in
rain mn
in
humidity
%
barometer
mb
20260504082007 53 163 2.6 5.2 0.00 0.00 0.00 81 1012.7
20260504081508 53 196 2.6 5.2 0.00 0.00 0.00 81 1012.8
20260504080508 53 188 4.3 7.0 0.00 0.00 0.00 81 1012.7
20260504050508 51 142 0.0 1.7 0.00 0.13 0.00 82 1011.4
20260504050008 51 192 0.0 1.7 0.00 0.13 0.00 82 1011.4
20260504045507 51 191 1.7 2.6 0.00 0.13 0.00 83 1011.3
20260504045007 50 194 0.0 0.0 0.00 0.13 0.00 84 1011.3
20260504044007 50 323 0.0 0.0 0.00 0.13 0.00 85 1011.4
20260504043508 49 323 0.0 0.0 0.00 0.13 0.00 85 1011.4
20260504043008 49 323 0.0 0.0 0.00 0.13 0.00 84 1011.4
20260504042507 50 323 0.0 0.0 0.00 0.13 0.00 84 1011.4
20260504042008 50 323 0.0 0.0 0.00 0.13 0.00 83 1011.4
20260504041508 50 323 0.0 0.0 0.00 0.13 0.00 83 1011.4
20260504040508 50 323 0.0 0.0 0.00 0.13 0.00 83 1011.4
20260504040008 50 323 0.0 0.0 0.00 0.13 0.00 82 1011.5
20260504035508 50 323 0.0 0.0 0.00 0.13 0.00 81 1011.5
20260504035007 51 323 0.0 0.0 0.00 0.13 0.00 82 1011.4
20260504034508 50 323 0.0 0.0 0.00 0.13 0.00 82 1011.5
20260504034007 50 323 0.0 0.0 0.00 0.13 0.00 81 1011.5
20260504033507 50 323 0.0 0.0 0.00 0.13 0.00 81 1011.5
20260504033007 50 323 0.0 0.0 0.00 0.13 0.00 81 1011.5
20260504032508 51 323 0.0 0.0 0.00 0.13 0.00 80 1011.6
20260504032008 51 323 0.0 0.0 0.00 0.13 0.00 79 1011.5
20260504031508 51 323 0.0 0.0 0.00 0.13 0.00 79 1011.6
20260504031008 51 323 0.0 0.0 0.00 0.13 0.00 79 1011.6
20260504030508 51 323 0.0 0.0 0.00 0.13 0.00 79 1011.6
20260504025507 52 323 0.0 0.0 0.00 0.13 0.00 77 1011.6
20260504025008 52 323 0.0 0.0 0.00 0.13 0.00 77 1011.6
20260504024507 52 323 0.0 0.0 0.00 0.13 0.00 77 1011.5
20260504024007 52 323 0.0 0.0 0.00 0.13 0.00 77 1011.5
20260504023508 53 323 0.0 0.0 0.00 0.13 0.00 78 1011.5
20260504023008 52 323 0.0 0.0 0.00 0.13 0.00 79 1011.5
20260504022508 52 323 0.0 0.0 0.00 0.13 0.00 79 1011.5
20260504022007 52 323 0.0 0.0 0.00 0.13 0.00 79 1011.5
20260504021008 52 323 0.0 0.0 0.00 0.13 0.00 78 1011.6
20260504020508 53 323 0.0 0.0 0.00 0.13 0.00 77 1011.5
20260504020008 54 323 0.0 0.0 0.00 0.13 0.00 75 1011.5
20260504015507 55 248 0.0 0.0 0.00 0.13 0.00 73 1011.5
20260504015008 56 190 0.0 1.7 0.00 0.13 0.00 72 1011.5
20260504014507 56 189 0.9 2.6 0.00 0.13 0.00 70 1011.5
20260504014007 56 190 0.9 2.6 0.00 0.13 0.00 70 1011.6
20260504013008 56 190 2.6 4.3 0.00 0.13 0.00 69 1011.6
20260504012008 55 286 0.9 2.6 0.00 0.13 0.00 71 1011.6
20260504011508 55 286 0.0 0.9 0.00 0.13 0.00 71 1011.7
20260504011007 55 286 0.0 1.7 0.00 0.13 0.00 70 1011.8
20260504010509 55 286 0.0 0.0 0.00 0.13 0.00 71 1011.7
20260504010008 55 286 0.0 0.0 0.00 0.13 0.00 71 1011.8
20260504005507 55 286 0.0 0.0 0.00 0.13 0.00 71 1011.7
20260504005007 55 286 0.0 0.0 0.00 0.13 0.00 72 1011.7
20260504004508 55 286 0.0 0.0 0.00 0.13 0.00 72 1011.8
20260504004007 55 286 0.0 0.0 0.00 0.13 0.00 73 1011.9
20260504003507 55 286 0.0 0.0 0.00 0.13 0.00 72 1011.9
20260504003008 56 286 0.0 0.0 0.00 0.13 0.00 73 1011.9
20260504002507 56 286 0.0 2.6 0.00 0.13 0.00 72 1012.0
20260504002007 56 279 2.6 5.2 0.00 0.13 0.00 71 1012.1
20260504001508 57 283 4.3 7.0 0.00 0.13 0.00 70 1012.0
20260504001007 58 221 1.7 2.6 0.00 0.13 0.00 66 1012.0
20260504000507 58 210 0.9 2.6 0.00 0.13 0.00 67 1012.1
20260504000009 58 220 0.0 2.6 0.00 0.13 0.00 66 1012.1
20260503235511 58 216 1.7 2.6 0.00 0.13 0.00 66 1012.0
20260503234007 58 209 0.0 2.6 0.00 0.13 0.00 65 1012.1
20260503233508 59 209 0.9 2.6 0.00 0.13 0.00 64 1012.2
20260503232511 59 197 0.9 2.6 0.00 0.13 0.00 63 1012.1
20260503232007 59 188 1.7 4.3 0.00 0.13 0.00 64 1012.3
20260503231007 58 184 1.7 2.6 0.00 0.13 0.00 65 1012.3
20260503230507 58 184 1.7 2.6 0.00 0.13 0.00 64 1012.3
20260503230008 58 223 0.0 0.9 0.00 0.13 0.00 65 1012.2
20260503225008 58 232 0.0 2.6 0.00 0.13 0.00 66 1012.5
20260503224007 58 238 0.9 2.6 0.00 0.13 0.00 67 1012.4
20260503223507 58 223 0.0 1.7 0.00 0.13 0.00 68 1012.4
20260503223007 58 213 0.0 0.9 0.00 0.13 0.00 68 1012.4
20260503222507 58 181 0.0 0.9 0.00 0.13 0.00 67 1012.4
20260503222007 59 172 0.0 0.0 0.00 0.15 0.00 67 1012.3
20260503221508 59 172 0.0 0.0 0.00 0.17 0.00 64 1012.4
20260503215507 59 172 1.7 2.6 0.00 0.17 0.17 63 1012.5
20260503215007 59 195 1.7 2.6 0.00 0.17 0.17 62 1012.5
20260503214508 59 199 2.6 2.6 0.00 0.17 0.17 63 1012.5
20260503214007 58 205 1.7 2.6 0.00 0.17 0.17 65 1012.5
20260503213007 58 274 0.0 0.0 0.00 0.17 0.17 69 1012.4
20260503212507 58 290 0.0 0.0 0.00 0.17 0.17 68 1012.4
20260503212007 58 290 0.0 0.0 0.00 0.17 0.17 68 1012.4
20260503211507 58 290 0.0 0.0 0.00 0.17 0.17 68 1012.3
20260503211008 59 290 0.0 1.7 0.00 0.17 0.17 68 1012.3
20260503210508 60 249 0.9 2.6 0.00 0.17 0.17 63 1012.4
20260503205007 60 245 1.7 2.6 0.00 0.17 0.17 61 1012.2
20260503204507 60 207 0.9 2.6 0.00 0.17 0.17 61 1012.0
20260503204006 60 230 1.7 2.6 0.00 0.17 0.17 61 1012.0
20260503203508 60 222 1.7 5.2 0.00 0.17 0.17 62 1011.9
20260503203007 61 244 0.9 4.3 0.00 0.17 0.17 63 1011.8
20260503202507 61 235 0.9 4.3 0.00 0.17 0.17 62 1011.6
20260503202006 61 238 1.7 7.0 0.00 0.17 0.17 62 1011.5
20260503201507 60 220 2.6 7.0 0.00 0.17 0.17 62 1011.5
20260503201007 60 224 4.3 7.8 0.00 0.17 0.17 63 1011.5
20260503200507 60 267 0.9 2.6 0.00 0.17 0.17 65 1011.5
20260503200007 60 252 1.7 5.2 0.00 0.17 0.17 65 1011.5
20260503195007 60 270 1.7 7.0 0.00 0.17 0.17 65 1011.4
20260503194508 61 257 2.6 6.1 0.00 0.17 0.17 65 1011.4
20260503193507 61 235 4.3 7.0 0.00 0.17 0.17 64 1011.2
20260503193008 61 247 4.3 6.1 0.00 0.17 0.17 64 1011.2
20260503192507 61 241 4.3 7.8 0.00 0.17 0.17 64 1011.1
20260503192007 61 241 3.5 7.8 0.00 0.17 0.17 64 1011.1
20260503191507 61 240 3.5 7.0 0.00 0.17 0.17 63 1011.0
20260503191006 61 258 4.3 7.0 0.00 0.17 0.17 64 1010.9
20260503190507 61 283 0.9 2.6 0.00 0.17 0.17 67 1010.8
20260503190008 61 264 0.9 2.6 0.00 0.17 0.17 66 1010.8
20260503185507 61 282 1.7 6.1 0.00 0.17 0.17 65 1010.7
20260503185007 62 287 0.9 6.1 0.00 0.17 0.17 64 1010.7
20260503184508 62 260 2.6 6.1 0.00 0.17 0.17 63 1010.8
20260503184011 62 251 2.6 6.1 0.00 0.17 0.17 63 1010.7
20260503183507 62 252 1.7 2.6 0.00 0.17 0.17 64 1010.7
20260503183011 62 294 0.9 7.0 0.00 0.17 0.17 63 1010.7
20260503182509 63 282 4.3 7.8 0.00 0.17 0.17 61 1010.6
20260503182007 63 276 1.7 6.1 0.00 0.17 0.17 59 1010.6
20260503181507 64 277 2.6 7.8 0.00 0.17 0.17 58 1010.6
20260503180507 64 274 2.6 10.4 0.00 0.17 0.17 57 1010.6
20260503180007 65 278 1.7 7.0 0.00 0.17 0.17 57 1010.6
20260503175007 65 269 3.5 10.4 0.00 0.17 0.17 55 1010.6
20260503174507 65 251 6.1 10.4 0.00 0.17 0.17 54 1010.5
20260503174006 66 281 4.3 11.3 0.00 0.17 0.17 54 1010.5
20260503173507 66 293 4.3 10.4 0.00 0.17 0.17 54 1010.5
20260503173007 66 276 4.3 11.3 0.00 0.17 0.17 54 1010.6
20260503172507 66 242 4.3 10.4 0.00 0.17 0.17 55 1010.6
20260503172007 65 264 5.2 10.4 0.00 0.17 0.17 53 1010.5
20260503171507 66 272 6.1 13.0 0.00 0.17 0.17 51 1010.5
20260503171007 66 283 4.3 10.4 0.00 0.17 0.17 55 1010.5
20260503170507 66 265 4.3 10.4 0.00 0.17 0.17 55 1010.7
20260503151006 67 280 6.1 10.4 0.00 0.17 0.17 53 1010.6
20260503150507 67 257 5.2 13.0 0.00 0.17 0.17 52 1010.6
20260503131006 67 226 7.8 13.9 0.00 0.17 0.17 55 1011.5
20260503130507 66 247 6.1 14.8 0.00 0.24 0.17 56 1011.6
20260503110507 64 237 6.1 10.4 0.00 0.41 0.17 70 1012.9
20260503090508 59 195 2.6 7.0 0.00 0.43 0.17 89 1013.9